Year,Month,Day,Hour,Minute,Value (Times are PST for insolation in W/m^2)
2014,03,29,00,00,0.00
2014,03,29,00,01,0.00
2014,03,29,00,02,0.00
2014,03,29,00,03,0.00
2014,03,29,00,04,0.00
2014,03,29,00,05,0.00
2014,03,29,00,06,0.00
2014,03,29,00,07,0.00
2014,03,29,00,08,0.00
2014,03,29,00,09,0.00
2014,03,29,00,10,0.00
2014,03,29,00,11,0.00
2014,03,29,00,12,0.00
2014,03,29,00,13,0.00
2014,03,29,00,14,0.00
2014,03,29,00,15,0.00
2014,03,29,00,16,0.00
2014,03,29,00,17,0.00
2014,03,29,00,18,0.00
2014,03,29,00,19,0.00
2014,03,29,00,20,0.00
2014,03,29,00,21,0.00
2014,03,29,00,22,0.00
2014,03,29,00,23,0.00
2014,03,29,00,24,0.00
2014,03,29,00,25,0.00
2014,03,29,00,26,0.00
2014,03,29,00,27,0.00
2014,03,29,00,28,0.00
2014,03,29,00,29,0.00
2014,03,29,00,30,0.00
2014,03,29,00,31,0.00
2014,03,29,00,32,0.00
2014,03,29,00,33,0.00
2014,03,29,00,34,0.00
2014,03,29,00,35,0.00
2014,03,29,00,36,0.00
2014,03,29,00,37,0.00
2014,03,29,00,38,0.00
2014,03,29,00,39,0.00
2014,03,29,00,40,0.00
2014,03,29,00,41,0.00
2014,03,29,00,42,0.00
2014,03,29,00,43,0.00
2014,03,29,00,44,0.00
2014,03,29,00,45,0.00
2014,03,29,00,46,0.00
2014,03,29,00,47,0.00
2014,03,29,00,48,0.00
2014,03,29,00,49,0.00
2014,03,29,00,50,0.00
2014,03,29,00,51,0.00
2014,03,29,00,52,0.00
2014,03,29,00,53,0.00
2014,03,29,00,54,0.00
2014,03,29,00,55,0.00
2014,03,29,00,56,0.00
2014,03,29,00,57,0.00
2014,03,29,00,58,0.00
2014,03,29,00,59,0.00
2014,03,29,01,00,0.00
2014,03,29,01,01,0.00
2014,03,29,01,02,0.00
2014,03,29,01,03,0.00
2014,03,29,01,04,0.00
2014,03,29,01,05,0.00
2014,03,29,01,06,0.00
2014,03,29,01,07,0.00
2014,03,29,01,08,0.00
2014,03,29,01,09,0.00
2014,03,29,01,10,0.00
2014,03,29,01,11,0.00
2014,03,29,01,12,0.00
2014,03,29,01,13,0.00
2014,03,29,01,14,0.00
2014,03,29,01,15,0.00
2014,03,29,01,16,0.00
2014,03,29,01,17,0.00
2014,03,29,01,18,0.00
2014,03,29,01,19,0.00
2014,03,29,01,20,0.00
2014,03,29,01,21,0.00
2014,03,29,01,22,0.00
2014,03,29,01,23,0.00
2014,03,29,01,24,0.00
2014,03,29,01,25,0.00
2014,03,29,01,26,0.00
2014,03,29,01,27,0.00
2014,03,29,01,28,0.00
2014,03,29,01,29,0.00
2014,03,29,01,30,0.00
2014,03,29,01,31,0.00
2014,03,29,01,32,0.00
2014,03,29,01,33,0.00
2014,03,29,01,34,0.00
2014,03,29,01,35,0.00
2014,03,29,01,36,0.00
2014,03,29,01,37,0.00
2014,03,29,01,38,0.00
2014,03,29,01,39,0.00
2014,03,29,01,40,0.00
2014,03,29,01,41,0.00
2014,03,29,01,42,0.00
2014,03,29,01,43,0.00
2014,03,29,01,44,0.00
2014,03,29,01,45,0.00
2014,03,29,01,46,0.00
2014,03,29,01,47,0.00
2014,03,29,01,48,0.00
2014,03,29,01,49,0.00
2014,03,29,01,50,0.00
2014,03,29,01,51,0.00
2014,03,29,01,52,0.00
2014,03,29,01,53,0.00
2014,03,29,01,54,0.00
2014,03,29,01,55,0.00
2014,03,29,01,56,0.00
2014,03,29,01,57,0.00
2014,03,29,01,58,0.00
2014,03,29,01,59,0.00
2014,03,29,02,00,0.00
2014,03,29,02,01,0.00
2014,03,29,02,02,0.00
2014,03,29,02,03,0.00
2014,03,29,02,04,0.00
2014,03,29,02,05,0.00
2014,03,29,02,06,0.00
2014,03,29,02,07,0.00
2014,03,29,02,08,0.00
2014,03,29,02,09,0.00
2014,03,29,02,10,0.00
2014,03,29,02,11,0.00
2014,03,29,02,12,0.00
2014,03,29,02,13,0.00
2014,03,29,02,14,0.00
2014,03,29,02,15,0.00
2014,03,29,02,16,0.00
2014,03,29,02,17,0.00
2014,03,29,02,18,0.00
2014,03,29,02,19,0.00
2014,03,29,02,20,0.00
2014,03,29,02,21,0.00
2014,03,29,02,22,0.00
2014,03,29,02,23,0.00
2014,03,29,02,24,0.00
2014,03,29,02,25,0.00
2014,03,29,02,26,0.00
2014,03,29,02,27,0.00
2014,03,29,02,28,0.00
2014,03,29,02,29,0.00
2014,03,29,02,30,0.00
2014,03,29,02,31,0.00
2014,03,29,02,32,0.00
2014,03,29,02,33,0.00
2014,03,29,02,34,0.00
2014,03,29,02,35,0.00
2014,03,29,02,36,0.00
2014,03,29,02,37,0.00
2014,03,29,02,38,0.00
2014,03,29,02,39,0.00
2014,03,29,02,40,0.00
2014,03,29,02,41,0.00
2014,03,29,02,42,0.00
2014,03,29,02,43,0.00
2014,03,29,02,44,0.00
2014,03,29,02,45,0.00
2014,03,29,02,46,0.00
2014,03,29,02,47,0.00
2014,03,29,02,48,0.00
2014,03,29,02,49,0.00
2014,03,29,02,50,0.00
2014,03,29,02,51,0.00
2014,03,29,02,52,0.00
2014,03,29,02,53,0.00
2014,03,29,02,54,0.00
2014,03,29,02,55,0.00
2014,03,29,02,56,0.00
2014,03,29,02,57,0.00
2014,03,29,02,58,0.00
2014,03,29,02,59,0.00
2014,03,29,03,00,0.00
2014,03,29,03,01,0.00
2014,03,29,03,02,0.00
2014,03,29,03,03,0.00
2014,03,29,03,04,0.00
2014,03,29,03,05,0.00
2014,03,29,03,06,0.00
2014,03,29,03,07,0.00
2014,03,29,03,08,0.00
2014,03,29,03,09,0.00
2014,03,29,03,10,0.00
2014,03,29,03,11,0.00
2014,03,29,03,12,0.00
2014,03,29,03,13,0.00
2014,03,29,03,14,0.00
2014,03,29,03,15,0.00
2014,03,29,03,16,0.00
2014,03,29,03,17,0.00
2014,03,29,03,18,0.00
2014,03,29,03,19,0.00
2014,03,29,03,20,0.00
2014,03,29,03,21,0.00
2014,03,29,03,22,0.00
2014,03,29,03,23,0.00
2014,03,29,03,24,0.00
2014,03,29,03,25,0.00
2014,03,29,03,26,0.00
2014,03,29,03,27,0.00
2014,03,29,03,28,0.00
2014,03,29,03,29,0.00
2014,03,29,03,30,0.00
2014,03,29,03,31,0.00
2014,03,29,03,32,0.00
2014,03,29,03,33,0.00
2014,03,29,03,34,0.00
2014,03,29,03,35,0.00
2014,03,29,03,36,0.00
2014,03,29,03,37,0.00
2014,03,29,03,38,0.00
2014,03,29,03,39,0.00
2014,03,29,03,40,0.00
2014,03,29,03,41,0.00
2014,03,29,03,42,0.00
2014,03,29,03,43,0.00
2014,03,29,03,44,0.00
2014,03,29,03,45,0.00
2014,03,29,03,46,0.00
2014,03,29,03,47,0.00
2014,03,29,03,48,0.00
2014,03,29,03,49,0.00
2014,03,29,03,50,0.00
2014,03,29,03,51,0.00
2014,03,29,03,52,0.00
2014,03,29,03,53,0.00
2014,03,29,03,54,0.00
2014,03,29,03,55,0.00
2014,03,29,03,56,0.00
2014,03,29,03,57,0.00
2014,03,29,03,58,0.00
2014,03,29,03,59,0.00
2014,03,29,04,00,0.00
2014,03,29,04,01,0.00
2014,03,29,04,02,0.00
2014,03,29,04,03,0.00
2014,03,29,04,04,0.00
2014,03,29,04,05,0.00
2014,03,29,04,06,0.00
2014,03,29,04,07,0.00
2014,03,29,04,08,0.00
2014,03,29,04,09,0.00
2014,03,29,04,10,0.00
2014,03,29,04,11,0.00
2014,03,29,04,12,0.00
2014,03,29,04,13,0.00
2014,03,29,04,14,0.00
2014,03,29,04,15,0.00
2014,03,29,04,16,0.00
2014,03,29,04,17,0.00
2014,03,29,04,18,0.00
2014,03,29,04,19,0.00
2014,03,29,04,20,0.00
2014,03,29,04,21,0.00
2014,03,29,04,22,0.00
2014,03,29,04,23,0.00
2014,03,29,04,24,0.00
2014,03,29,04,25,0.00
2014,03,29,04,26,0.00
2014,03,29,04,27,0.00
2014,03,29,04,28,0.00
2014,03,29,04,29,0.00
2014,03,29,04,30,0.00
2014,03,29,04,31,0.00
2014,03,29,04,32,0.00
2014,03,29,04,33,0.00
2014,03,29,04,34,0.00
2014,03,29,04,35,0.00
2014,03,29,04,36,0.00
2014,03,29,04,37,0.00
2014,03,29,04,38,0.00
2014,03,29,04,39,0.00
2014,03,29,04,40,0.00
2014,03,29,04,41,0.00
2014,03,29,04,42,0.00
2014,03,29,04,43,0.00
2014,03,29,04,44,0.00
2014,03,29,04,45,0.00
2014,03,29,04,46,0.00
2014,03,29,04,47,0.00
2014,03,29,04,48,0.00
2014,03,29,04,49,0.00
2014,03,29,04,50,0.00
2014,03,29,04,51,0.00
2014,03,29,04,52,0.00
2014,03,29,04,53,0.00
2014,03,29,04,54,0.00
2014,03,29,04,55,0.00
2014,03,29,04,56,0.00
2014,03,29,04,57,0.00
2014,03,29,04,58,0.00
2014,03,29,04,59,0.00
2014,03,29,05,00,0.00
2014,03,29,05,01,0.00
2014,03,29,05,02,0.00
2014,03,29,05,03,0.00
2014,03,29,05,04,0.00
2014,03,29,05,05,0.00
2014,03,29,05,06,0.00
2014,03,29,05,07,0.00
2014,03,29,05,08,0.00
2014,03,29,05,09,0.00
2014,03,29,05,10,0.00
2014,03,29,05,11,0.00
2014,03,29,05,12,0.00
2014,03,29,05,13,0.00
2014,03,29,05,14,0.00
2014,03,29,05,15,0.00
2014,03,29,05,16,0.00
2014,03,29,05,17,0.00
2014,03,29,05,18,0.00
2014,03,29,05,19,0.00
2014,03,29,05,20,0.00
2014,03,29,05,21,0.00
2014,03,29,05,22,0.00
2014,03,29,05,23,0.00
2014,03,29,05,24,0.00
2014,03,29,05,25,0.00
2014,03,29,05,26,0.00
2014,03,29,05,27,0.00
2014,03,29,05,28,0.00
2014,03,29,05,29,0.00
2014,03,29,05,30,0.00
2014,03,29,05,31,0.00
2014,03,29,05,32,0.00
2014,03,29,05,33,0.00
2014,03,29,05,34,0.00
2014,03,29,05,35,0.00
2014,03,29,05,36,0.00
2014,03,29,05,37,0.00
2014,03,29,05,38,0.00
2014,03,29,05,39,0.00
2014,03,29,05,40,0.00
2014,03,29,05,41,0.00
2014,03,29,05,42,0.00
2014,03,29,05,43,0.00
2014,03,29,05,44,0.00
2014,03,29,05,45,0.00
2014,03,29,05,46,0.00
2014,03,29,05,47,0.00
2014,03,29,05,48,0.00
2014,03,29,05,49,0.00
2014,03,29,05,50,0.00
2014,03,29,05,51,0.00
2014,03,29,05,52,0.00
2014,03,29,05,53,0.00
2014,03,29,05,54,0.00
2014,03,29,05,55,0.00
2014,03,29,05,56,0.00
2014,03,29,05,57,0.00
2014,03,29,05,58,0.00
2014,03,29,05,59,0.00
2014,03,29,06,00,0.00
2014,03,29,06,01,0.00
2014,03,29,06,02,0.00
2014,03,29,06,03,0.00
2014,03,29,06,04,0.00
2014,03,29,06,05,0.00
2014,03,29,06,06,0.00
2014,03,29,06,07,0.00
2014,03,29,06,08,0.00
2014,03,29,06,09,0.00
2014,03,29,06,10,0.00
2014,03,29,06,11,0.00
2014,03,29,06,12,0.00
2014,03,29,06,13,0.00
2014,03,29,06,14,0.00
2014,03,29,06,15,0.00
2014,03,29,06,16,0.00
2014,03,29,06,17,0.00
2014,03,29,06,18,0.00
2014,03,29,06,19,0.00
2014,03,29,06,20,0.00
2014,03,29,06,21,0.00
2014,03,29,06,22,0.00
2014,03,29,06,23,0.00
2014,03,29,06,24,0.00
2014,03,29,06,25,0.00
2014,03,29,06,26,0.00
2014,03,29,06,27,0.00
2014,03,29,06,28,0.00
2014,03,29,06,29,0.00
2014,03,29,06,30,0.00
2014,03,29,06,31,0.00
2014,03,29,06,32,0.00
2014,03,29,06,33,0.00
2014,03,29,06,34,0.00
2014,03,29,06,35,0.00
2014,03,29,06,36,0.00
2014,03,29,06,37,0.00
2014,03,29,06,38,0.00
2014,03,29,06,39,0.00
2014,03,29,06,40,0.00
2014,03,29,06,41,0.00
2014,03,29,06,42,0.00
2014,03,29,06,43,0.00
2014,03,29,06,44,0.00
2014,03,29,06,45,0.00
2014,03,29,06,46,0.00
2014,03,29,06,47,0.00
2014,03,29,06,48,0.00
2014,03,29,06,49,0.00
2014,03,29,06,50,0.00
2014,03,29,06,51,0.00
2014,03,29,06,52,0.00
2014,03,29,06,53,0.00
2014,03,29,06,54,0.00
2014,03,29,06,55,0.00
2014,03,29,06,56,0.00
2014,03,29,06,57,0.00
2014,03,29,06,58,0.00
2014,03,29,06,59,0.00
2014,03,29,07,00,0.00
2014,03,29,07,01,0.00
2014,03,29,07,02,0.00
2014,03,29,07,03,0.00
2014,03,29,07,04,0.00
2014,03,29,07,05,0.00
2014,03,29,07,06,0.00
2014,03,29,07,07,0.00
2014,03,29,07,08,0.00
2014,03,29,07,09,0.00
2014,03,29,07,10,0.00
2014,03,29,07,11,0.00
2014,03,29,07,12,0.00
2014,03,29,07,13,0.00
2014,03,29,07,14,0.00
2014,03,29,07,15,0.00
2014,03,29,07,16,0.00
2014,03,29,07,17,0.00
2014,03,29,07,18,0.00
2014,03,29,07,19,0.00
2014,03,29,07,20,0.00
2014,03,29,07,21,0.00
2014,03,29,07,22,0.00
2014,03,29,07,23,0.00
2014,03,29,07,24,0.00
2014,03,29,07,25,0.00
2014,03,29,07,26,0.00
2014,03,29,07,27,4.20
2014,03,29,07,28,5.00
2014,03,29,07,29,5.00
2014,03,29,07,30,5.00
2014,03,29,07,31,5.20
2014,03,29,07,32,7.00
2014,03,29,07,33,7.00
2014,03,29,07,34,7.70
2014,03,29,07,35,9.00
2014,03,29,07,36,9.80
2014,03,29,07,37,11.00
2014,03,29,07,38,11.60
2014,03,29,07,39,13.30
2014,03,29,07,40,14.00
2014,03,29,07,41,14.00
2014,03,29,07,42,14.00
2014,03,29,07,43,14.00
2014,03,29,07,44,14.00
2014,03,29,07,45,16.00
2014,03,29,07,46,16.00
2014,03,29,07,47,16.40
2014,03,29,07,48,18.00
2014,03,29,07,49,18.00
2014,03,29,07,50,17.30
2014,03,29,07,51,16.00
2014,03,29,07,52,14.90
2014,03,29,07,53,14.00
2014,03,29,07,54,14.00
2014,03,29,07,55,14.00
2014,03,29,07,56,15.50
2014,03,29,07,57,18.50
2014,03,29,07,58,20.80
2014,03,29,07,59,22.90
2014,03,29,08,00,25.20
2014,03,29,08,01,28.60
2014,03,29,08,02,32.20
2014,03,29,08,03,33.00
2014,03,29,08,04,33.70
2014,03,29,08,05,36.60
2014,03,29,08,06,39.50
2014,03,29,08,07,42.10
2014,03,29,08,08,45.70
2014,03,29,08,09,50.90
2014,03,29,08,10,56.50
2014,03,29,08,11,61.80
2014,03,29,08,12,68.10
2014,03,29,08,13,69.00
2014,03,29,08,14,63.30
2014,03,29,08,15,55.30
2014,03,29,08,16,48.20
2014,03,29,08,17,44.40
2014,03,29,08,18,46.30
2014,03,29,08,19,47.60
2014,03,29,08,20,47.20
2014,03,29,08,21,40.00
2014,03,29,08,22,32.40
2014,03,29,08,23,30.00
2014,03,29,08,24,33.20
2014,03,29,08,25,35.00
2014,03,29,08,26,35.00
2014,03,29,08,27,35.00
2014,03,29,08,28,32.30
2014,03,29,08,29,28.20
2014,03,29,08,30,24.80
2014,03,29,08,31,23.00
2014,03,29,08,32,23.60
2014,03,29,08,33,26.50
2014,03,29,08,34,28.00
2014,03,29,08,35,28.00
2014,03,29,08,36,28.00
2014,03,29,08,37,28.90
2014,03,29,08,38,31.10
2014,03,29,08,39,33.80
2014,03,29,08,40,38.30
2014,03,29,08,41,42.90
2014,03,29,08,42,44.00
2014,03,29,08,43,44.00
2014,03,29,08,44,44.00
2014,03,29,08,45,39.90
2014,03,29,08,46,38.80
2014,03,29,08,47,37.00
2014,03,29,08,48,37.00
2014,03,29,08,49,37.00
2014,03,29,08,50,37.70
2014,03,29,08,51,40.30
2014,03,29,08,52,41.00
2014,03,29,08,53,36.20
2014,03,29,08,54,33.00
2014,03,29,08,55,32.30
2014,03,29,08,56,29.10
2014,03,29,08,57,29.60
2014,03,29,08,58,31.70
2014,03,29,08,59,34.80
2014,03,29,09,00,35.10
2014,03,29,09,01,37.00
2014,03,29,09,02,36.40
2014,03,29,09,03,33.50
2014,03,29,09,04,35.60
2014,03,29,09,05,38.20
2014,03,29,09,06,43.20
2014,03,29,09,07,46.50
2014,03,29,09,08,44.80
2014,03,29,09,09,45.80
2014,03,29,09,10,46.30
2014,03,29,09,11,48.20
2014,03,29,09,12,53.00
2014,03,29,09,13,60.80
2014,03,29,09,14,66.50
2014,03,29,09,15,76.30
2014,03,29,09,16,83.10
2014,03,29,09,17,85.40
2014,03,29,09,18,91.50
2014,03,29,09,19,93.60
2014,03,29,09,20,95.00
2014,03,29,09,21,93.20
2014,03,29,09,22,92.80
2014,03,29,09,23,97.80
2014,03,29,09,24,101.20
2014,03,29,09,25,104.10
2014,03,29,09,26,105.00
2014,03,29,09,27,102.60
2014,03,29,09,28,100.30
2014,03,29,09,29,100.00
2014,03,29,09,30,100.00
2014,03,29,09,31,99.80
2014,03,29,09,32,97.60
2014,03,29,09,33,93.80
2014,03,29,09,34,87.20
2014,03,29,09,35,78.60
2014,03,29,09,36,70.80
2014,03,29,09,37,64.40
2014,03,29,09,38,60.90
2014,03,29,09,39,61.20
2014,03,29,09,40,65.20
2014,03,29,09,41,76.00
2014,03,29,09,42,84.90
2014,03,29,09,43,107.20
2014,03,29,09,44,136.20
2014,03,29,09,45,200.70
2014,03,29,09,46,214.00
2014,03,29,09,47,247.20
2014,03,29,09,48,424.00
2014,03,29,09,49,348.30
2014,03,29,09,50,197.00
2014,03,29,09,51,261.80
2014,03,29,09,52,299.50
2014,03,29,09,53,258.00
2014,03,29,09,54,375.60
2014,03,29,09,55,487.30
2014,03,29,09,56,505.10
2014,03,29,09,57,488.80
2014,03,29,09,58,544.50
2014,03,29,09,59,498.30
2014,03,29,10,00,481.10
2014,03,29,10,01,267.70
2014,03,29,10,02,232.00
2014,03,29,10,03,270.60
2014,03,29,10,04,416.70
2014,03,29,10,05,466.00
2014,03,29,10,06,405.60
2014,03,29,10,07,316.90
2014,03,29,10,08,308.00
2014,03,29,10,09,376.80
2014,03,29,10,10,399.00
2014,03,29,10,11,348.00
2014,03,29,10,12,342.80
2014,03,29,10,13,330.60
2014,03,29,10,14,272.20
2014,03,29,10,15,354.50
2014,03,29,10,16,374.80
2014,03,29,10,17,511.00
2014,03,29,10,18,495.80
2014,03,29,10,19,522.00
2014,03,29,10,20,522.00
2014,03,29,10,21,535.50
2014,03,29,10,22,559.00
2014,03,29,10,23,577.50
2014,03,29,10,24,615.60
2014,03,29,10,25,658.40
2014,03,29,10,26,638.80
2014,03,29,10,27,623.20
2014,03,29,10,28,598.20
2014,03,29,10,29,587.70
2014,03,29,10,30,571.30
2014,03,29,10,31,578.60
2014,03,29,10,32,579.20
2014,03,29,10,33,560.80
2014,03,29,10,34,579.00
2014,03,29,10,35,605.00
2014,03,29,10,36,533.50
2014,03,29,10,37,446.00
2014,03,29,10,38,446.00
2014,03,29,10,39,446.00
2014,03,29,10,40,446.00
2014,03,29,10,41,446.00
2014,03,29,10,42,422.80
2014,03,29,10,43,433.30
2014,03,29,10,44,436.00
2014,03,29,10,45,595.20
2014,03,29,10,46,613.80
2014,03,29,10,47,597.00
2014,03,29,10,48,635.70
2014,03,29,10,49,577.00
2014,03,29,10,50,577.00
2014,03,29,10,51,577.00
2014,03,29,10,52,577.00
2014,03,29,10,53,541.60
2014,03,29,10,54,515.00
2014,03,29,10,55,762.10
2014,03,29,10,56,868.00
2014,03,29,10,57,492.80
2014,03,29,10,58,399.00
2014,03,29,10,59,399.00
2014,03,29,11,00,401.10
2014,03,29,11,01,441.00
2014,03,29,11,02,498.50
2014,03,29,11,03,714.00
2014,03,29,11,04,604.80
2014,03,29,11,05,350.00
2014,03,29,11,06,350.00
2014,03,29,11,07,350.00
2014,03,29,11,08,350.00
2014,03,29,11,09,364.40
2014,03,29,11,10,384.70
2014,03,29,11,11,348.00
2014,03,29,11,12,373.20
2014,03,29,11,13,368.50
2014,03,29,11,14,311.10
2014,03,29,11,15,285.10
2014,03,29,11,16,288.70
2014,03,29,11,17,296.80
2014,03,29,11,18,303.50
2014,03,29,11,19,299.00
2014,03,29,11,20,284.30
2014,03,29,11,21,261.50
2014,03,29,11,22,255.20
2014,03,29,11,23,260.00
2014,03,29,11,24,487.80
2014,03,29,11,25,628.00
2014,03,29,11,26,628.00
2014,03,29,11,27,304.00
2014,03,29,11,28,193.20
2014,03,29,11,29,179.00
2014,03,29,11,30,180.40
2014,03,29,11,31,166.90
2014,03,29,11,32,152.20
2014,03,29,11,33,134.00
2014,03,29,11,34,123.50
2014,03,29,11,35,116.80
2014,03,29,11,36,106.10
2014,03,29,11,37,95.30
2014,03,29,11,38,82.30
2014,03,29,11,39,71.80
2014,03,29,11,40,67.70
2014,03,29,11,41,67.00
2014,03,29,11,42,67.00
2014,03,29,11,43,62.70
2014,03,29,11,44,58.20
2014,03,29,11,45,58.10
2014,03,29,11,46,60.00
2014,03,29,11,47,59.60
2014,03,29,11,48,57.50
2014,03,29,11,49,57.30
2014,03,29,11,50,61.80
2014,03,29,11,51,67.20
2014,03,29,11,52,73.20
2014,03,29,11,53,77.70
2014,03,29,11,54,77.20
2014,03,29,11,55,71.80
2014,03,29,11,56,64.80
2014,03,29,11,57,58.80
2014,03,29,11,58,56.30
2014,03,29,11,59,57.90
2014,03,29,12,00,60.20
2014,03,29,12,01,63.60
2014,03,29,12,02,69.40
2014,03,29,12,03,73.20
2014,03,29,12,04,79.10
2014,03,29,12,05,89.20
2014,03,29,12,06,105.40
2014,03,29,12,07,129.50
2014,03,29,12,08,152.60
2014,03,29,12,09,172.20
2014,03,29,12,10,188.10
2014,03,29,12,11,219.80
2014,03,29,12,12,229.00
2014,03,29,12,13,229.00
2014,03,29,12,14,801.40
2014,03,29,12,15,865.00
2014,03,29,12,16,865.00
2014,03,29,12,17,865.00
2014,03,29,12,18,865.00
2014,03,29,12,19,805.90
2014,03,29,12,20,705.00
2014,03,29,12,21,803.30
2014,03,29,12,22,884.00
2014,03,29,12,23,907.60
2014,03,29,12,24,922.20
2014,03,29,12,25,924.50
2014,03,29,12,26,924.80
2014,03,29,12,27,946.00
2014,03,29,12,28,953.50
2014,03,29,12,29,954.00
2014,03,29,12,30,803.00
2014,03,29,12,31,803.00
2014,03,29,12,32,729.80
2014,03,29,12,33,331.70
2014,03,29,12,34,385.00
2014,03,29,12,35,385.00
2014,03,29,12,36,385.00
2014,03,29,12,37,385.00
2014,03,29,12,38,391.30
2014,03,29,12,39,397.00
2014,03,29,12,40,397.00
2014,03,29,12,41,397.00
2014,03,29,12,42,397.00
2014,03,29,12,43,748.00
2014,03,29,12,44,891.70
2014,03,29,12,45,896.00
2014,03,29,12,46,896.00
2014,03,29,12,47,841.20
2014,03,29,12,48,531.00
2014,03,29,12,49,615.30
2014,03,29,12,50,821.10
2014,03,29,12,51,838.00
2014,03,29,12,52,838.00
2014,03,29,12,53,542.80
2014,03,29,12,54,370.60
2014,03,29,12,55,384.20
2014,03,29,12,56,368.80
2014,03,29,12,57,372.00
2014,03,29,12,58,432.20
2014,03,29,12,59,373.90
2014,03,29,13,00,399.80
2014,03,29,13,01,320.00
2014,03,29,13,02,320.00
2014,03,29,13,03,450.00
2014,03,29,13,04,840.00
2014,03,29,13,05,917.70
2014,03,29,13,06,1019.20
2014,03,29,13,07,967.00
2014,03,29,13,08,967.00
2014,03,29,13,09,967.00
2014,03,29,13,10,564.50
2014,03,29,13,11,392.00
2014,03,29,13,12,772.00
2014,03,29,13,13,867.00
2014,03,29,13,14,867.00
2014,03,29,13,15,855.70
2014,03,29,13,16,651.10
2014,03,29,13,17,714.00
2014,03,29,13,18,714.00
2014,03,29,13,19,714.00
2014,03,29,13,20,714.00
2014,03,29,13,21,714.00
2014,03,29,13,22,874.50
2014,03,29,13,23,1035.00
2014,03,29,13,24,1035.00
2014,03,29,13,25,1035.00
2014,03,29,13,26,1035.00
2014,03,29,13,27,485.40
2014,03,29,13,28,325.90
2014,03,29,13,29,266.90
2014,03,29,13,30,231.10
2014,03,29,13,31,214.20
2014,03,29,13,32,211.60
2014,03,29,13,33,188.60
2014,03,29,13,34,167.20
2014,03,29,13,35,158.10
2014,03,29,13,36,155.70
2014,03,29,13,37,145.30
2014,03,29,13,38,135.40
2014,03,29,13,39,137.20
2014,03,29,13,40,150.40
2014,03,29,13,41,147.30
2014,03,29,13,42,140.00
2014,03,29,13,43,137.30
2014,03,29,13,44,143.30
2014,03,29,13,45,175.50
2014,03,29,13,46,204.50
2014,03,29,13,47,209.40
2014,03,29,13,48,212.20
2014,03,29,13,49,214.60
2014,03,29,13,50,206.60
2014,03,29,13,51,201.80
2014,03,29,13,52,205.00
2014,03,29,13,53,209.90
2014,03,29,13,54,220.20
2014,03,29,13,55,226.40
2014,03,29,13,56,256.00
2014,03,29,13,57,275.40
2014,03,29,13,58,278.90
2014,03,29,13,59,272.70
2014,03,29,14,00,254.10
2014,03,29,14,01,234.20
2014,03,29,14,02,213.40
2014,03,29,14,03,192.10
2014,03,29,14,04,178.00
2014,03,29,14,05,167.80
2014,03,29,14,06,162.60
2014,03,29,14,07,162.50
2014,03,29,14,08,159.50
2014,03,29,14,09,151.80
2014,03,29,14,10,150.40
2014,03,29,14,11,157.80
2014,03,29,14,12,208.00
2014,03,29,14,13,249.50
2014,03,29,14,14,253.20
2014,03,29,14,15,251.10
2014,03,29,14,16,250.70
2014,03,29,14,17,248.00
2014,03,29,14,18,267.60
2014,03,29,14,19,346.00
2014,03,29,14,20,346.00
2014,03,29,14,21,283.50
2014,03,29,14,22,196.00
2014,03,29,14,23,183.90
2014,03,29,14,24,165.00
2014,03,29,14,25,136.80
2014,03,29,14,26,131.00
2014,03,29,14,27,160.30
2014,03,29,14,28,204.10
2014,03,29,14,29,202.90
2014,03,29,14,30,211.30
2014,03,29,14,31,255.00
2014,03,29,14,32,255.00
2014,03,29,14,33,255.00
2014,03,29,14,34,255.00
2014,03,29,14,35,255.00
2014,03,29,14,36,255.00
2014,03,29,14,37,255.00
2014,03,29,14,38,255.00
2014,03,29,14,39,255.00
2014,03,29,14,40,190.60
2014,03,29,14,41,149.00
2014,03,29,14,42,144.40
2014,03,29,14,43,155.90
2014,03,29,14,44,153.50
2014,03,29,14,45,143.90
2014,03,29,14,46,142.40
2014,03,29,14,47,146.80
2014,03,29,14,48,147.50
2014,03,29,14,49,130.70
2014,03,29,14,50,109.60
2014,03,29,14,51,97.80
2014,03,29,14,52,99.50
2014,03,29,14,53,110.60
2014,03,29,14,54,120.60
2014,03,29,14,55,121.60
2014,03,29,14,56,118.80
2014,03,29,14,57,133.20
2014,03,29,14,58,147.20
2014,03,29,14,59,149.00
2014,03,29,15,00,155.40
2014,03,29,15,01,162.90
2014,03,29,15,02,172.50
2014,03,29,15,03,179.20
2014,03,29,15,04,171.30
2014,03,29,15,05,165.00
2014,03,29,15,06,171.00
2014,03,29,15,07,190.20
2014,03,29,15,08,207.90
2014,03,29,15,09,201.40
2014,03,29,15,10,182.00
2014,03,29,15,11,174.60
2014,03,29,15,12,175.60
2014,03,29,15,13,190.30
2014,03,29,15,14,220.00
2014,03,29,15,15,227.10
2014,03,29,15,16,231.70
2014,03,29,15,17,244.70
2014,03,29,15,18,235.50
2014,03,29,15,19,226.80
2014,03,29,15,20,258.30
2014,03,29,15,21,301.00
2014,03,29,15,22,308.00
2014,03,29,15,23,337.10
2014,03,29,15,24,349.80
2014,03,29,15,25,316.40
2014,03,29,15,26,258.10
2014,03,29,15,27,204.20
2014,03,29,15,28,172.90
2014,03,29,15,29,152.80
2014,03,29,15,30,127.30
2014,03,29,15,31,114.90
2014,03,29,15,32,127.00
2014,03,29,15,33,148.80
2014,03,29,15,34,166.90
2014,03,29,15,35,179.80
2014,03,29,15,36,188.90
2014,03,29,15,37,197.10
2014,03,29,15,38,204.80
2014,03,29,15,39,211.40
2014,03,29,15,40,223.80
2014,03,29,15,41,234.20
2014,03,29,15,42,271.80
2014,03,29,15,43,310.80
2014,03,29,15,44,351.10
2014,03,29,15,45,355.00
2014,03,29,15,46,355.00
2014,03,29,15,47,338.60
2014,03,29,15,48,250.20
2014,03,29,15,49,267.00
2014,03,29,15,50,267.00
2014,03,29,15,51,295.80
2014,03,29,15,52,339.00
2014,03,29,15,53,526.00
2014,03,29,15,54,679.00
2014,03,29,15,55,344.90
2014,03,29,15,56,205.60
2014,03,29,15,57,217.40
2014,03,29,15,58,273.00
2014,03,29,15,59,283.00
2014,03,29,16,00,379.90
2014,03,29,16,01,356.70
2014,03,29,16,02,98.10
2014,03,29,16,03,74.60
2014,03,29,16,04,66.30
2014,03,29,16,05,57.50
2014,03,29,16,06,53.40
2014,03,29,16,07,58.00
2014,03,29,16,08,72.40
2014,03,29,16,09,101.80
2014,03,29,16,10,124.60
2014,03,29,16,11,131.40
2014,03,29,16,12,129.00
2014,03,29,16,13,133.10
2014,03,29,16,14,134.00
2014,03,29,16,15,133.90
2014,03,29,16,16,131.80
2014,03,29,16,17,129.00
2014,03,29,16,18,122.70
2014,03,29,16,19,111.90
2014,03,29,16,20,105.80
2014,03,29,16,21,97.30
2014,03,29,16,22,82.60
2014,03,29,16,23,70.50
2014,03,29,16,24,58.40
2014,03,29,16,25,48.80
2014,03,29,16,26,40.80
2014,03,29,16,27,36.00
2014,03,29,16,28,33.30
2014,03,29,16,29,34.80
2014,03,29,16,30,35.10
2014,03,29,16,31,37.30
2014,03,29,16,32,41.40
2014,03,29,16,33,51.60
2014,03,29,16,34,66.60
2014,03,29,16,35,93.90
2014,03,29,16,36,132.80
2014,03,29,16,37,163.60
2014,03,29,16,38,177.90
2014,03,29,16,39,189.40
2014,03,29,16,40,204.60
2014,03,29,16,41,246.10
2014,03,29,16,42,245.20
2014,03,29,16,43,203.90
2014,03,29,16,44,171.70
2014,03,29,16,45,154.20
2014,03,29,16,46,137.70
2014,03,29,16,47,126.70
2014,03,29,16,48,124.60
2014,03,29,16,49,122.10
2014,03,29,16,50,119.30
2014,03,29,16,51,118.00
2014,03,29,16,52,119.00
2014,03,29,16,53,126.90
2014,03,29,16,54,132.00
2014,03,29,16,55,132.00
2014,03,29,16,56,263.60
2014,03,29,16,57,297.50
2014,03,29,16,58,252.40
2014,03,29,16,59,209.70
2014,03,29,17,00,192.90
2014,03,29,17,01,193.80
2014,03,29,17,02,197.20
2014,03,29,17,03,278.00
2014,03,29,17,04,235.10
2014,03,29,17,05,133.20
2014,03,29,17,06,131.80
2014,03,29,17,07,135.40
2014,03,29,17,08,132.50
2014,03,29,17,09,123.20
2014,03,29,17,10,120.70
2014,03,29,17,11,122.50
2014,03,29,17,12,117.80
2014,03,29,17,13,110.10
2014,03,29,17,14,105.40
2014,03,29,17,15,105.00
2014,03,29,17,16,119.00
2014,03,29,17,17,129.40
2014,03,29,17,18,139.90
2014,03,29,17,19,153.10
2014,03,29,17,20,165.10
2014,03,29,17,21,173.10